sat.trackr.live / text

‹ back to catalog

SHIKONGXING 01

NORAD 65712 · 2025-214A

PAYLOAD ACTIVE UNKNOWN

§ Identity

Operator
Country
PRC
Launch date
2025-09-24
Launch site
YSLA
Launch vehicle
Mass (kg)
RCS (m²)

External: N2YO · Heavens-Above · Gunter

§ Orbital elements

Epoch: 2026-09-19T13:35:26.010528Z

Period
96.44 min
Inclination
49.9864°
Eccentricity
0.0013195
Mean motion
14.93167348 rev/d
Perigee alt
578.9 km
Apogee alt
597.3 km
Semi-major
6,966.2 km
B*
1.4504e-4
RAAN
210.0704°
Arg perigee
259.1633°
Mean anomaly
100.7825°
Rev number
5,380

§ Raw data

SHIKONGXING 011 65712U 25214A   26262.56627327  .00001284  00000+0  14504-3 0  99922 65712  49.9864 210.0704 0013195 259.1633 100.7825 14.93167348 53800

JSON: /api/v1/satellites/65712 · /tle

For live sub-satellite position, see the globe view (requires WebGL).

§ Visibility from observer

Set your observer location to see the next 7 days of passes ≥ 10°. The values pass through the URL so the page stays shareable.

No JS? Fill the form by hand. The geolocation button needs JavaScript.